Bandar Lengeh, Iran

6:53 PM +0430 on April 30, 2017 (GMT +0430)
Bandar Lengeh

Weather History for OIBL - February, 2013

Change the Weather History Date:

Tuesday, February 19, 2013

  Actual Average Record
Temperature  
Mean Temperature 69 °F -  
Max Temperature 78 °F 78 °F - ()
Min Temperature 60 °F 60 °F - ()
Cooling Degree Days 4    
Growing Degree Days 19 (Base 50)    
Moisture  
Dew Point 59 °F    
Average Humidity 66    
Maximum Humidity 78    
Minimum Humidity 24    
Precipitation  
Precipitation 0.00 in 0.04 in - ()
Sea Level Pressure  
Sea Level Pressure 29.89 in    
Wind  
Wind Speed 5 mph ()    
Max Wind Speed 14 mph    
Max Gust Speed -    
Visibility 2.9 miles    
Events      
T = Trace of Precipitation, MM = Missing Value Source: Averaged Metar Reports

Daily Weather History Graph

Daily Weather History Graph

Search for Another Location

Airport or City:

Trip Planner

Search our weather history database for the weather conditions in past years. The results will help you decide how hot, cold, wet, or windy it might be!

Date:

Astronomy

Feb. 19, 2013 Rise Set
Actual Time 6:23 AM +0330 5:45 PM +0330
Civil Twilight 6:00 AM +0330 6:09 PM +0330
Nautical Twilight 5:32 AM +0330 6:36 PM +0330
Astronomical Twilight 5:06 AM +0330 7:03 PM +0330
Moon 12:15 PM +0330 (2/19) 1:18 AM +0330 (2/19)
Length of Visible Light 12h 09m
Length of Day
11h 22m
Waxing Gibbous, 64% of the Moon is Illuminated
Feb 19
Waxing Gibbous
Feb 25
Full
Mar 5
Last Quarter
Mar 11
New
Mar 19
First Quarter

Hourly Weather History & Observations

Time (+0330) Temp. Dew Point Humidity Pressure Visibility Wind Dir Wind Speed Gust Speed Precip Events Conditions
12:20 AM 66.2 °F 59.0 °F 78% 29.86 in 3.1 mi NW 4.6 mph - N/A   Haze
12:30 AM 66.2 °F 59.0 °F 78% 29.86 in 3.1 mi NW 4.6 mph - N/A   Haze
3:30 AM 64 °F 55 °F 66% 29.87 in 3 mi NNW 4.5 mph - -   Haze
3:30 AM 64.4 °F 55.4 °F 73% 29.86 in 3.1 mi NNW 4.6 mph - N/A   Haze
5:20 AM 62.6 °F 55.4 °F 77% 29.86 in 3.1 mi North 4.6 mph - N/A   Haze
5:30 AM 62.6 °F 55.4 °F 77% 29.86 in 3.1 mi North 4.6 mph - N/A   Haze
6:20 AM 60.8 °F 53.6 °F 77% 29.89 in 2.5 mi NNW 4.6 mph - N/A   Haze
6:30 AM 60.8 °F 53.6 °F 77% 29.89 in 2.5 mi NNW 4.6 mph - N/A   Haze
7:20 AM 62.6 °F 55.4 °F 77% 29.92 in 2.5 mi Calm Calm - N/A   Haze
7:30 AM 62.6 °F 55.4 °F 77% 29.92 in 2.5 mi Calm Calm - N/A   Haze
8:20 AM 69.8 °F 59.0 °F 68% 29.92 in 2.5 mi East 4.6 mph - N/A   Haze
8:30 AM 69.8 °F 59.0 °F 68% 29.92 in 2.5 mi East 4.6 mph - N/A   Haze
9:20 AM 73.4 °F 62.6 °F 69% 29.92 in 2.5 mi Calm Calm - N/A   Haze
9:30 AM 74 °F 63 °F 60% 29.95 in 2 mi Calm Calm - -   Haze
9:30 AM 73.4 °F 62.6 °F 69% 29.92 in 2.5 mi Calm Calm - N/A   Haze
10:20 AM 73.4 °F 64.4 °F 73% 29.95 in 2.5 mi Calm Calm - N/A   Haze
10:30 AM 73.4 °F 64.4 °F 73% 29.95 in 2.5 mi Calm Calm - N/A   Haze
11:30 AM 75.2 °F 64.4 °F 69% 29.92 in 3.1 mi South 4.6 mph - N/A   Haze
12:20 PM 75.2 °F 64.4 °F 69% 29.92 in 3.1 mi SSW 9.2 mph - N/A   Haze
12:30 PM 75.2 °F 64.4 °F 69% 29.92 in 3.1 mi SSW 9.2 mph - N/A   Haze
1:20 PM 78.8 °F 39.2 °F 24% 29.89 in 3.1 mi SW 11.5 mph - N/A   Haze
1:30 PM 78.8 °F 39.2 °F 24% 29.89 in 3.1 mi SW 11.5 mph - N/A   Haze
2:20 PM 77.0 °F 60.8 °F 57% 29.86 in 3.1 mi SW 13.8 mph - N/A   Haze
2:30 PM 77.0 °F 60.8 °F 57% 29.86 in 3.1 mi SW 13.8 mph - N/A   Haze
3:20 PM 75.2 °F 62.6 °F 65% 29.86 in 3.1 mi SSW 9.2 mph - N/A   Haze
3:30 PM 75 °F 63 °F 58% 29.87 in 3 mi SSW 8.9 mph - -   Haze
3:30 PM 75.2 °F 62.6 °F 65% 29.86 in 3.1 mi SSW 9.2 mph - N/A   Haze
4:20 PM 73.4 °F 62.6 °F 69% 29.86 in 3.1 mi SW 9.2 mph - N/A   Haze
4:30 PM 73.4 °F 62.6 °F 69% 29.86 in 3.1 mi SW 9.2 mph - N/A   Haze
5:20 PM 73.4 °F 62.6 °F 69% 29.86 in 3.1 mi SW 9.2 mph - N/A   Haze
5:30 PM 73.4 °F 62.6 °F 69% 29.86 in 3.1 mi SW 9.2 mph - N/A   Haze
6:20 PM 71.6 °F 64.4 °F 78% 29.86 in 3.1 mi SW 9.2 mph - N/A   Haze
6:30 PM 71.6 °F 64.4 °F 78% 29.86 in 3.1 mi SW 9.2 mph - N/A   Haze
7:20 PM 71.6 °F 62.6 °F 73% 29.89 in 3.1 mi West 6.9 mph - N/A   Haze
7:30 PM 71.6 °F 62.6 °F 73% 29.89 in 3.1 mi West 6.9 mph - N/A   Haze
8:20 PM 71.6 °F 57.2 °F 60% 29.89 in 3.1 mi Calm Calm - N/A   Haze
8:30 PM 71.6 °F 57.2 °F 60% 29.89 in 3.1 mi Calm Calm - N/A   Haze
9:20 PM 71.6 °F 53.6 °F 53% 29.89 in 3.1 mi Calm Calm - N/A   Haze
9:30 PM 71 °F 53 °F 43% 29.91 in 3 mi Calm Calm - -   Haze
9:30 PM 71.6 °F 53.6 °F 53% 29.89 in 3.1 mi Calm Calm - N/A   Haze